VHTUZ YCFS-YMOR

Flight info

Callsign VHTUZ
Flight time N/A
Altitude 22000
Route YCFS/21 N0425F220 DCT LOSKU W256 ARM DCT MOR DCT YMOR/19
Aircraft CJ4/L-V/N

Departure

Time N/A
Airport Coffs Harbour Airport (YCFS)

Arrival

Time 2026-04-21 09:26
Airport Moree Airport (YMOR)
Time Latitude Longitude Altitude Speed Heading
2026-04-21 08:55 -30.49752 152.25824 22285 ft 366 kts 262°
2026-04-21 08:55 -30.49889 152.22874 22286 ft 367 kts 263°
2026-04-21 08:56 -30.50021 152.19921 22291 ft 366 kts 262°
2026-04-21 08:56 -30.50172 152.16935 22297 ft 366 kts 262°
2026-04-21 08:56 -30.50313 152.13987 22292 ft 366 kts 262°
2026-04-21 08:56 -30.50453 152.11038 22297 ft 366 kts 262°
2026-04-21 08:57 -30.50597 152.08089 22291 ft 366 kts 262°
2026-04-21 08:57 -30.50731 152.05139 22292 ft 367 kts 262°
2026-04-21 08:57 -30.50874 152.02188 22299 ft 366 kts 262°
2026-04-21 08:57 -30.51009 151.99238 22292 ft 367 kts 262°
2026-04-21 08:58 -30.51150 151.96287 22295 ft 367 kts 262°
2026-04-21 08:58 -30.51284 151.93332 22294 ft 367 kts 262°
2026-04-21 08:58 -30.51425 151.90377 22287 ft 367 kts 262°
2026-04-21 08:58 -30.51555 151.87426 22283 ft 367 kts 263°
2026-04-21 08:59 -30.51695 151.84469 22284 ft 367 kts 262°
2026-04-21 08:59 -30.51826 151.81517 22285 ft 367 kts 263°
2026-04-21 08:59 -30.51962 151.78562 22282 ft 367 kts 262°
2026-04-21 08:59 -30.52094 151.75608 22281 ft 367 kts 263°
2026-04-21 09:00 -30.52227 151.72658 22286 ft 366 kts 262°
2026-04-21 09:00 -30.52357 151.69705 22285 ft 366 kts 263°
2026-04-21 09:00 -30.52490 151.66755 22287 ft 366 kts 262°
2026-04-21 09:00 -30.52615 151.63805 22282 ft 367 kts 264°
2026-04-21 09:01 -30.52207 151.60871 22274 ft 379 kts 288°
2026-04-21 09:01 -30.50746 151.58293 22280 ft 387 kts 306°
2026-04-21 09:01 -30.48927 151.55979 22274 ft 389 kts 310°
2026-04-21 09:01 -30.47037 151.53739 22271 ft 389 kts 310°
2026-04-21 09:02 -30.45254 151.51394 22273 ft 387 kts 305°
2026-04-21 09:02 -30.43593 151.48951 22274 ft 387 kts 304°
2026-04-21 09:02 -30.41870 151.46550 22278 ft 388 kts 307°
2026-04-21 09:03 -30.38355 151.41809 22269 ft 387 kts 306°
2026-04-21 09:03 -30.36618 151.39423 22269 ft 387 kts 306°
2026-04-21 09:03 -30.34884 151.37034 22269 ft 388 kts 306°
2026-04-21 09:03 -30.33138 151.34657 22269 ft 388 kts 306°
2026-04-21 09:04 -30.31397 151.32279 22242 ft 387 kts 306°
2026-04-21 09:04 -30.29658 151.29909 22249 ft 386 kts 307°
2026-04-21 09:04 -30.27925 151.27540 22250 ft 386 kts 306°
2026-04-21 09:04 -30.26187 151.25176 22250 ft 386 kts 306°
2026-04-21 09:05 -30.25015 151.23573 22246 ft 386 kts 306°
2026-04-21 09:05 -30.23277 151.21208 22242 ft 386 kts 307°
2026-04-21 09:05 -30.21539 151.18843 22242 ft 386 kts 306°
2026-04-21 09:05 -30.19802 151.16479 22210 ft 387 kts 307°
2026-04-21 09:06 -30.18063 151.14113 21828 ft 380 kts 306°
2026-04-21 09:06 -30.16381 151.11833 21496 ft 367 kts 307°
2026-04-21 09:06 -30.14755 151.09624 21157 ft 356 kts 306°
2026-04-21 09:06 -30.13167 151.07466 20827 ft 349 kts 307°
2026-04-21 09:07 -30.11604 151.05345 20411 ft 345 kts 306°
2026-04-21 09:07 -30.10053 151.03241 19983 ft 343 kts 307°
2026-04-21 09:07 -30.08515 151.01156 19573 ft 340 kts 307°
2026-04-21 09:07 -30.06982 150.99081 19179 ft 338 kts 307°
2026-04-21 09:08 -30.05457 150.97017 18774 ft 337 kts 307°
2026-04-21 09:08 -30.03942 150.94964 18367 ft 336 kts 307°
2026-04-21 09:08 -30.02428 150.92920 17908 ft 334 kts 307°
2026-04-21 09:08 -30.00923 150.90886 17467 ft 333 kts 307°
2026-04-21 09:09 -29.99422 150.88857 17066 ft 334 kts 307°
2026-04-21 09:09 -29.97880 150.86763 16692 ft 351 kts 307°
2026-04-21 09:09 -29.96259 150.84581 16320 ft 364 kts 307°
2026-04-21 09:09 -29.94587 150.82325 15958 ft 374 kts 308°
2026-04-21 09:10 -29.92878 150.80027 15603 ft 379 kts 308°
2026-04-21 09:10 -29.91205 150.77777 15247 ft 361 kts 308°
2026-04-21 09:10 -29.89601 150.75627 14892 ft 348 kts 307°
2026-04-21 09:10 -29.88058 150.73538 14517 ft 338 kts 307°
2026-04-21 09:11 -29.86543 150.71508 14160 ft 330 kts 307°
2026-04-21 09:11 -29.85074 150.69523 13783 ft 323 kts 307°
2026-04-21 09:11 -29.83618 150.67576 13386 ft 319 kts 308°
2026-04-21 09:11 -29.82168 150.65617 12991 ft 316 kts 308°
2026-04-21 09:12 -29.80749 150.63737 12616 ft 313 kts 309°
2026-04-21 09:12 -29.79304 150.61871 12231 ft 311 kts 310°
2026-04-21 09:12 -29.77827 150.60015 11853 ft 310 kts 311°
2026-04-21 09:12 -29.76352 150.58214 11481 ft 308 kts 312°
2026-04-21 09:13 -29.74866 150.56446 11117 ft 307 kts 313°
2026-04-21 09:13 -29.73517 150.54565 10752 ft 304 kts 302°
2026-04-21 09:13 -29.72380 150.52518 10396 ft 303 kts 303°
2026-04-21 09:13 -29.71067 150.50623 10040 ft 303 kts 310°
2026-04-21 09:14 -29.69646 150.48827 9710 ft 301 kts 311°
2026-04-21 09:14 -29.68274 150.47032 9454 ft 297 kts 310°
2026-04-21 09:14 -29.66940 150.45236 9187 ft 294 kts 309°
2026-04-21 09:14 -29.65618 150.43457 8924 ft 292 kts 310°
2026-04-21 09:15 -29.64295 150.41697 8665 ft 290 kts 310°
2026-04-21 09:15 -29.62984 150.39944 8413 ft 288 kts 311°
2026-04-21 09:15 -29.61675 150.38206 8163 ft 287 kts 310°
2026-04-21 09:15 -29.60376 150.36463 7915 ft 287 kts 311°
2026-04-21 09:16 -29.59072 150.34736 7668 ft 286 kts 311°
2026-04-21 09:16 -29.57777 150.33001 7419 ft 285 kts 311°
2026-04-21 09:16 -29.56479 150.31282 7178 ft 284 kts 310°
2026-04-21 09:16 -29.55193 150.29560 6937 ft 283 kts 311°
2026-04-21 09:17 -29.53902 150.27855 6696 ft 282 kts 310°
2026-04-21 09:17 -29.52632 150.26151 6450 ft 280 kts 311°
2026-04-21 09:17 -29.51355 150.24471 6197 ft 279 kts 310°
2026-04-21 09:17 -29.50096 150.22785 5946 ft 278 kts 310°
2026-04-21 09:18 -29.48829 150.21113 5697 ft 277 kts 310°
2026-04-21 09:18 -29.47578 150.19439 5450 ft 276 kts 310°
2026-04-21 09:18 -29.46317 150.17779 5205 ft 275 kts 310°
2026-04-21 09:18 -29.45073 150.16116 4995 ft 273 kts 310°
2026-04-21 09:19 -29.43829 150.14482 4822 ft 271 kts 310°
2026-04-21 09:19 -29.42606 150.12844 4645 ft 269 kts 310°
2026-04-21 09:19 -29.41376 150.11230 4468 ft 268 kts 310°
2026-04-21 09:19 -29.40165 150.09611 4292 ft 267 kts 310°
2026-04-21 09:20 -29.38946 150.08012 4116 ft 266 kts 310°
2026-04-21 09:20 -29.37740 150.06402 3943 ft 266 kts 310°
2026-04-21 09:20 -29.36525 150.04808 3771 ft 266 kts 310°
2026-04-21 09:20 -29.35320 150.03203 3600 ft 265 kts 309°
2026-04-21 09:21 -29.34113 150.01619 3528 ft 261 kts 310°
2026-04-21 09:21 -29.33085 149.99943 3490 ft 255 kts 289°
2026-04-21 09:21 -29.32962 149.97968 3468 ft 247 kts 265°
2026-04-21 09:21 -29.33013 149.96010 3463 ft 245 kts 266°
2026-04-21 09:22 -29.33125 149.94071 3404 ft 244 kts 263°
2026-04-21 09:22 -29.33250 149.92136 3253 ft 242 kts 260°
2026-04-21 09:22 -29.34002 149.90479 3089 ft 237 kts 219°
2026-04-21 09:22 -29.35454 149.89621 2872 ft 236 kts 198°
2026-04-21 09:23 -29.36990 149.89077 2637 ft 224 kts 194°
2026-04-21 09:23 -29.38405 149.88640 2427 ft 203 kts 195°
2026-04-21 09:23 -29.39714 149.88184 2345 ft 189 kts 195°
2026-04-21 09:23 -29.40932 149.87751 2314 ft 178 kts 196°
2026-04-21 09:24 -29.42101 149.87336 2126 ft 171 kts 196°
2026-04-21 09:24 -29.43183 149.86946 1906 ft 157 kts 196°
2026-04-21 09:24 -29.44174 149.86598 1708 ft 135 kts 195°
2026-04-21 09:24 -29.45008 149.86298 1525 ft 120 kts 195°
2026-04-21 09:25 -29.45792 149.86022 1363 ft 115 kts 199°
2026-04-21 09:25 -29.46543 149.85761 1211 ft 110 kts 198°
2026-04-21 09:25 -29.47252 149.85503 1108 ft 106 kts 198°
2026-04-21 09:25 -29.47968 149.85223 1007 ft 108 kts 196°
2026-04-21 09:26 -29.48691 149.84988 926 ft 107 kts 198°
2026-04-21 09:26 -29.49401 149.84741 715 ft 100 kts 199°
2026-04-21 09:26 -29.49971 149.84534 689 ft 66 kts 197°
2026-04-21 09:26 -29.50157 149.84462 688 ft 12 kts 181°
2026-04-21 09:27 -29.50132 149.84492 695 ft 16 kts 10°
2026-04-21 09:27 -29.50003 149.84532 690 ft 21 kts 17°
2026-04-21 09:27 -29.49860 149.84579 691 ft 21 kts 17°
2026-04-21 09:27 -29.49719 149.84630 693 ft 22 kts 17°
2026-04-21 09:28 -29.49574 149.84682 692 ft 21 kts 18°
2026-04-21 09:28 -29.49549 149.84768 694 ft 12 kts 107°
2026-04-21 09:28 -29.49574 149.84864 693 ft 13 kts 107°
2026-04-21 09:28 -29.49611 149.84931 692 ft 8 kts 180°
2026-04-21 09:29 -29.49632 149.84955 695 ft 0 kts 75°